This demonstration page uses our WeatherBlox Daily Observations layout. Learn more.

Left ArrowRight Arrow

Hourly Observations for September 6, 2020

Temp ( °F °C ) Dew Point ( °F °C ) Humidity (%) Winds ( mph kmh ) Pressure ( in mb ) Visibility ( mi km ) Precip ( " mm )
12:54 am 00:54 Clear 81 27.2 63 17.2 54 54 SSW 20 31 29.93 1014 10 16.0934 0 0
1:54 am 01:54 Clear 80 26.7 63 17.2 56 56 SSW 21 33 29.9 1013 10 16.0934 0 0
2:54 am 02:54 Clear 80 26.7 63 17.2 56 56 SSW 23 37 29.88 1012 10 16.0934 0 0
3:54 am 03:54 Clear 78 25.6 63 17.2 60 60 SSW 22 35 29.86 1011 10 16.0934 0 0
4:54 am 04:54 Clear 77 25 63 17.2 62 62 SW 16 26 29.85 1011 10 16.0934 0 0
5:54 am 05:54 Clear 77 25 63 17.2 62 62 SSW 18 30 29.83 1010 10 16.0934 0 0
6:54 am 06:54 Clear 76 24.4 63 17.2 64 64 SSW 17 28 29.81 1010 10 16.0934 0 0
7:54 am 07:54 Sunny 77 25 63 17.2 62 62 SSW 20 31 29.8 1009 9 14.48406 0 0
8:54 am 08:54 Sunny 80 26.7 64 17.8 58 58 SSW 20 31 29.78 1009 9 14.48406 0 0
9:54 am 09:54 Sunny 83 28.3 64 17.8 53 53 WSW 20 31 29.79 1009 9 14.48406 0 0
10:54 am 10:54 Sunny 86 30 64 17.8 48 48 WSW 24 39 29.78 1008 9 14.48406 0 0
11:54 am 11:54 Sunny 89 31.7 64 17.8 43 43 SW 21 33 29.78 1009 9 14.48406 0 0
12:54 pm 12:54 Sunny 90 32.2 63 17.2 41 41 W 14 22 29.77 1008 9 14.48406 0 0
1:54 pm 13:54 Sunny 92 33.3 63 17.2 38 38 SW 10 17 29.78 1008 9 14.48406 0 0
2:54 pm 14:54 Sunny 93 33.9 62 16.7 36 36 W 9 15 29.77 1008 9 14.48406 0 0
3:54 pm 15:54 Sunny 93 33.9 62 16.7 36 36 WSW 9 15 29.76 1008 9 14.48406 0 0
4:54 pm 16:54 Sunny 93 33.9 62 16.7 36 36 W 7 11 29.76 1008 9 14.48406 0 0
5:54 pm 17:54 Sunny 92 33.3 62 16.7 37 37 W 6 9 29.76 1008 9 14.48406 0 0
6:54 pm 18:54 Sunny 91 32.8 62 16.7 38 38 NW 5 7 29.76 1008 9 14.48406 0 0
7:54 pm 19:54 Clear 86 30 64 17.8 48 48 NNW 7 11 29.77 1008 9 14.48406 0 0
8:54 pm 20:54 Clear 75 23.9 65 18.3 71 71 NNW 3 6 29.79 1009 9 14.48406 0 0
9:54 pm 21:54 Clear 75 23.9 63 17.2 66 66 N 10 17 29.81 1009 9 14.48406 0 0
10:54 pm 22:54 Clear 76 24.4 56 13.3 50 50 N 15 24 29.82 1010 10 16.0934 0 0
11:54 pm 23:54 Clear 74 23.3 54 12.2 50 50 N 14 22 29.85 1011 10 16.0934 0 0

Powered by AerisWeather